Das Wetter in  D-61279 Heinzenberg / Taunus





Wetter Minimum- & Maximum-Werte im Mai 2016

Standort: Heinzenberg / Taunus - Höhe 297 m         8 24' 1" Ost 50 21' 51" Nord
(   3-stündige Aktualisierung    letzte Aktualisierung um 19:04 am 31.05.2016  )


Messgrösse

Minimum

Maximum

Durchschnitt

Temperatur West /
Luftfeuchte West
Anklicken für Monats-Diagramm

0,1 C

05:52
04.05.2016

28 %

16:55
02.05.2016

28,9 C

16:49
07.05.2016

92 %

08:43
28.05.2016

Temp

14,1 C

Feuchte

67 %

Temperatur Ost /
Luftfeuchte Ost
Anklicken für Monats-Diagramm

-0,2 C

06:22
04.05.2016

--

--
--

29,0 C

16:44
07.05.2016

--

--
--

14,3 C

--

Luftdruck Anklicken für Monats-Diagramm

996,7 hPa

18:33
12.05.2016

1030,6 hPa

06:32
04.05.2016

1013,4 hPa

Taupunkt

-4,0 C

06:38
05.05.2016

18,0 C

13:43
28.05.2016

7,6 C

Windchill
( gefühlte Temperatur )

-5,9 C

10:40
15.05.2016

28,6 C

16:39
07.05.2016

12,9 C

Windgeschwindigkeit /
Windrichtung
Anklicken für Monats-Diagramm

---

51,9 km/h / W-NW

09:59
24.05.2016

6,3 km/h
W-NW

Helligkeit /
Sonnenschein
Anklicken für Monats-Diagramm
Anklicken für Monats-Diagramm

Sonnenschein:

197:18 Stunden

Max: 13:40 Std am
08.05.2016

128 klux

13:10
15.05.2016

40 klux

Solarstrahlung Anklicken für Monats-Diagramm

---

876 W/m

13:10
15.05.2016

291 W/m

Regenmenge
    Mai 2016
Anklicken für Monats-Diagramm

Insgesamt 90,6 l/m

in 46:16 Stunden
an 16 Tagen

55,0 l/m

02:15
30.05.2016

Gesamtmenge

90,6 l/m

Regen-Tage
    Mai 2016
Anklicken für Monats-Diagramm

>   0 mm/Tag

>   2 mm/Tag

>   5 mm/Tag

> 10 mm/Tag

> 20 mm/Tag

16 Tage     
6 Tage     
3 Tage     
2 Tage     
  1 Tag     

Eisige Tage Mai 2016 / 2015

Tmin ≤ -10C     

0 Tage

/

0 Tage

Eistage Mai 2016 / 2015

Tmax <     0C     

0 Tage

/

0 Tage

Frosttage Mai 2016 / 2015

Tmin ≤     0C     

0 Tage

/

0 Tage

Kalte Tage Mai 2016 / 2015

Tmax <   10C     

0 Tage

/

0 Tage

Warme Tage Mai 2016 / 2015

Tmax ≥   20C     

19 Tage

/

17 Tage

Sommertage Mai 2016 / 2015

Tmax ≥   25C     

7 Tage

/

3 Tage

Heisse Tage Mai 2016 / 2015

Tmax ≥   30C     

0 Tage

/

0 Tage


Monatsdiagramm Mai 2016

Die Kurven zeigen den Durchschnittswert des jeweiligen Tages an


Wetter-Monatsübersicht Mai 2016
Datum
  Temperatur
   Luftdruck
   Wind
  Regen
   Luftfeuchte
   Helligkeit

Sonnen-
schein


Temp.

Min.
Temp.

Max.
Temp.


Luftdruck

Min.
Luftdruck

Max.
Luftdruck

-Geschw.
Haupt-Richtg.

Max.
Wind

Menge /
Dauer


Feuchte

Min.
Feuchte

Max.
Feuchte


Helligkeit

Max.
Helligkeit

1.
Mai
11,6 C5,7 C
04:54
20,9 C
16:39
1021,2 hPa1018,3 hPa
00:04
1025,3 hPa
23:55
8,4 km/h
N-NW
29,8 km/h
18:34  
1,7 l/m
2:20 Stunden
66 %41 %
17:19
84 %
03:49
43,3 klux111,0 klux
13:54
8:05 Std 
2.
Mai
13,2 C3,0 C
07:05
24,3 C
16:35
1022,6 hPa1017,4 hPa
19:10
1026,1 hPa
07:05
1,7 km/h
SO
26,5 km/h
12:09  
---
57 %28 %
16:55
84 %
08:35
56 klux105 klux
11:45
12:15 Std 
3.
Mai
9,7 C5,5 C
23:52
15,4 C
14:56
1021,0 hPa1018,3 hPa
07:11
1027,8 hPa
23:57
6,4 km/h
NW
31,3 km/h
09:36  
0,8 l/m
1:45 Stunden
66 %51 %
15:01
85 %
11:41
29 klux124 klux
14:21
4:00 Std 
4.
Mai
8,8 C0,1 C
05:52
18,8 C
18:32
1028,2 hPa1026,1 hPa
18:32
1030,6 hPa
06:32
1,5 km/h
NW
18,1 km/h
17:07  
---
57 %30 %
17:12
81 %
08:17
51 klux115 klux
14:11
10:38 Std 
5.
Mai
11,7 C0,1 C
06:38
22,8 C
16:23
1024,1 hPa1018,5 hPa
18:38
1029,2 hPa
01:58
6,0 km/h
O-SO
26,6 km/h
11:03  
---
56 %36 %
16:13
76 %
07:43
59 klux110 klux
12:43
13:30 Std 
6.
Mai
16,8 C7,9 C
07:04
27,0 C
17:09
1015,3 hPa1011,1 hPa
19:54
1019,2 hPa
02:24
6,8 km/h
O-SO
29,6 km/h
08:34  
---
55 %31 %
18:19
78 %
07:14
57 klux101 klux
13:34
13:05 Std 
7.
Mai
18,0 C7,4 C
07:14
28,9 C
16:49
1011,3 hPa1008,5 hPa
16:49
1014,0 hPa
07:39
7,2 km/h
O-SO
33,0 km/h
15:24  
---
52 %28 %
17:59
79 %
08:24
57 klux101 klux
13:24
12:35 Std 
8.
Mai
18,6 C8,6 C
06:55
28,2 C
17:10
1011,8 hPa1009,6 hPa
17:10
1013,9 hPa
06:55
6,1 km/h
O-SO
29,5 km/h
16:00  
---
48 %29 %
16:30
71 %
07:45
58 klux102 klux
13:35
13:40 Std 
9.
Mai
19,2 C9,9 C
07:16
27,4 C
14:51
1012,5 hPa1010,7 hPa
16:11
1014,8 hPa
07:16
8,5 km/h
O-SO
35,3 km/h
16:11  
---
50 %35 %
15:16
72 %
08:06
55 klux107 klux
14:16
11:25 Std 
10.
Mai
18,0 C13,0 C
06:21
23,8 C
13:56
1009,6 hPa1007,5 hPa
19:21
1013,3 hPa
00:26
3,9 km/h
SO
23,6 km/h
12:41  
---
57 %42 %
15:11
72 %
23:57
35 klux100 klux
12:41
4:10 Std 
11.
Mai
17,7 C9,4 C
06:32
25,5 C
18:22
1004,8 hPa1000,6 hPa
18:22
1009,2 hPa
01:27
4,5 km/h
O-SO
23,8 km/h
11:27  
---
5 Minuten
64 %37 %
18:22
87 %
08:37
49 klux111 klux
13:42
10:15 Std 
12.
Mai
17,6 C11,7 C
07:03
23,7 C
14:43
998,8 hPa996,7 hPa
18:33
1001,8 hPa
00:22
4,3 km/h
O-SO
27,1 km/h
12:18  
---
62 %49 %
14:53
77 %
07:53
43 klux117 klux
13:53
7:00 Std 
13.
Mai
14,4 C9,1 C
06:14
24,0 C
13:24
1000,8 hPa998,6 hPa
00:04
1005,3 hPa
23:55
3,1 km/h
NO
25,8 km/h
13:39  
6,1 l/m
2:40 Stunden
75 %49 %
13:29
86 %
23:45
35 klux115 klux
13:34
6:00 Std 
14.
Mai
9,0 C4,9 C
23:55
12,8 C
13:55
1010,2 hPa1005,4 hPa
00:00
1016,5 hPa
23:55
11,4 km/h
NW
36,6 km/h
17:30  
0,2 l/m
55 Minuten
72 %48 %
16:50
89 %
07:10
34 klux127 klux
12:40
3:10 Std 
15.
Mai
7,2 C3,9 C
03:00
12,9 C
15:15
1018,6 hPa1016,5 hPa
00:00
1020,4 hPa
23:51
16,4 km/h
W-NW
39,2 km/h
10:35  
0,5 l/m
3:10 Stunden
70 %53 %
15:15
86 %
11:15
36 klux128 klux
13:10
4:05 Std 
16.
Mai
8,6 C4,3 C
03:56
15,0 C
16:46
1019,4 hPa1017,3 hPa
17:51
1020,7 hPa
03:56
9,7 km/h
NW
30,4 km/h
16:11  
---
63 %41 %
17:51
79 %
04:31
40 klux125 klux
12:56
5:25 Std 
17.
Mai
10,7 C6,1 C
03:57
17,5 C
18:32
1018,0 hPa1014,9 hPa
18:37
1020,4 hPa
02:52
7,8 km/h
W-SW
30,0 km/h
13:27  
---
61 %41 %
18:42
78 %
07:42
30 klux123 klux
13:22
2:35 Std 
18.
Mai
14,4 C10,5 C
06:48
19,9 C
17:28
1011,1 hPa1006,1 hPa
23:24
1015,6 hPa
00:02
7,1 km/h
W-SW
28,6 km/h
12:58  
---
40 Minuten
58 %44 %
17:23
71 %
23:54
31 klux112 klux
14:18
3:35 Std 
19.
Mai
13,4 C9,9 C
23:50
19,2 C
15:14
1010,5 hPa1006,2 hPa
00:04
1016,9 hPa
23:50
6,6 km/h
W
19,8 km/h
10:49  
3,8 l/m
2:50 Stunden
69 %48 %
16:54
86 %
07:49
33 klux122 klux
13:14
2:25 Std 
20.
Mai
12,7 C6,0 C
05:50
18,5 C
14:40
1018,5 hPa1016,9 hPa
00:00
1019,5 hPa
23:41
8,4 km/h
W-SW
27,8 km/h
10:45  
---
15 Minuten
71 %58 %
13:05
86 %
08:10
32 klux113 klux
14:30
4:30 Std 
21.
Mai
16,8 C9,8 C
06:21
24,0 C
16:11
1016,7 hPa1013,4 hPa
19:36
1019,5 hPa
00:21
6,7 km/h
W-SW
26,4 km/h
13:01  
---
66 %44 %
15:56
85 %
07:26
54 klux119 klux
12:56
11:00 Std 
22.
Mai
17,8 C10,4 C
06:07
25,8 C
16:12
1009,1 hPa1005,7 hPa
16:07
1014,4 hPa
00:12
11,7 km/h
W-SW
38,7 km/h
16:57  
0,2 l/m
1:35 Stunden
63 %41 %
16:52
83 %
06:52
44 klux116 klux
14:27
7:35 Std 
23.
Mai
13,0 C10,7 C
23:59
15,8 C
00:03
1010,6 hPa1008,2 hPa
03:13
1013,7 hPa
23:59
13,2 km/h
W-NW
31,8 km/h
08:53  
2,4 l/m
3:20 Stunden
79 %66 %
00:03
87 %
23:59
20 klux114 klux
12:08
35 Min 
24.
Mai
9,9 C9,2 C
23:55
10,6 C
00:04
1014,7 hPa1012,7 hPa
00:29
1015,9 hPa
23:55
10,3 km/h
W-NW
51,9 km/h
09:59  
4,4 l/m
8:00 Stunden
88 %87 %
00:04
90 %
13:14
13 klux43 klux
14:24
--- 
25.
Mai
11,4 C8,1 C
06:35
14,4 C
16:50
1015,1 hPa1014,3 hPa
16:50
1016,8 hPa
23:41
0,4 km/h
SO
5,9 km/h
11:25  
---
83 %73 %
11:10
91 %
07:20
18,0 klux117,0 klux
10:50
25 Min 
26.
Mai
14,8 C4,8 C
06:26
24,4 C
18:01
1015,7 hPa1013,2 hPa
18:36
1017,5 hPa
06:26
1,8 km/h
SO
15,4 km/h
14:46  
---
70 %42 %
16:01
90 %
08:36
62 klux118 klux
12:46
9:30 Std 
27.
Mai
16,5 C12,1 C
06:37
24,8 C
15:47
1014,6 hPa1012,5 hPa
18:17
1015,6 hPa
06:37
1,2 km/h
SO
12,0 km/h
12:42  
13,1 l/m
7:20 Stunden
78 %59 %
15:47
89 %
09:02
35 klux123 klux
13:32
4:20 Std 
28.
Mai
16,8 C12,0 C
05:43
25,0 C
13:48
1012,2 hPa1009,3 hPa
18:13
1015,3 hPa
00:33
2,2 km/h
W-NW
15,1 km/h
15:08  
0,6 l/m
1:20 Stunden
82 %63 %
14:53
92 %
08:43
32 klux117 klux
13:33
2:30 Std 
29.
Mai
16,9 C11,0 C
05:14
24,3 C
16:44
1006,0 hPa1003,2 hPa
20:29
1010,1 hPa
01:24
0,9 km/h
NW
11,5 km/h
12:54  
2,0 l/m
2:26 Stunden
82 %61 %
16:44
91 %
08:14
25 klux112 klux
15:24
2:00 Std 
30.
Mai
16,5 C14,3 C
03:10
20,4 C
13:05
1002,4 hPa1000,2 hPa
11:40
1006,0 hPa
23:56
6,1 km/h
SW
33,0 km/h
01:50  
55,0 l/m
7:35 Stunden
84 %69 %
15:15
91 %
06:15
34 klux126 klux
13:05
4:15 Std 
31.
Mai
16,3 C13,5 C
05:41
21,2 C
17:36
1009,4 hPa1006,0 hPa
00:01
1013,2 hPa
23:56
6,6 km/h
O-SO
45,6 km/h
18:56  
---
75 %60 %
17:31
85 %
00:01
31 klux127 klux
13:51
2:45 Std 



Mai
2016

Temperatur

  

Luftdruck

  

Wind

  

Regen

  

Luftfeuchte

  

Helligkeit

Sonnen-
schein

Min

Max

Min

Max

Max

Max

Min

Max

Max

Max

14,1 C

0,1 C

05:52 Uhr
04.05.2016

28,9 C

16:49 Uhr
07.05.2016

1013,4 hPa

996,7 hPa

18:33 Uhr
12.05.2016

1030,6 hPa

06:32 Uhr
04.05.2016

6,3 km/h

W-NW

51,9 km/h

09:59 Uhr
24.05.2016

55,0 l/m

7:35 Stunden
30.05.2016

67 %

28 %

16:55 Uhr
02.05.2016

92 %

08:43 Uhr
28.05.2016

40 klux

128,0 klux

13:10 Uhr
15.05.2016

13:40 Std

am
08.05.2016

Gesamt

Gesamt

90,6 l/m

16 Tage
46:16 h

197:18 Std


Wetter-Diagramme Mai 2016     Heinzenberg / Taunus   
TemperaturLuftfeuchte
SolarstrahlungLuftdruck
HelligkeitSonnenschein
RegenmengeRegendauer
Wind-GeschwindigkeitWind-Richtung